EST,Max TemperatureF,Mean TemperatureF,Min TemperatureF,Max Dew PointF,MeanDew PointF,Min DewpointF,Max Humidity, Mean Humidity, Min Humidity, Max Sea Level PressureIn, Mean Sea Level PressureIn, Min Sea Level PressureIn, Max VisibilityMiles, Mean VisibilityMiles, Min VisibilityMiles, Max Wind SpeedMPH, Mean Wind SpeedMPH, Max Gust SpeedMPH,PrecipitationIn, CloudCover, Events, WindDirDegrees
2013-1-1,37,28,19,23,13,1,64,48,38,29.91,29.77,29.69,10,10,10,23,13,34,0.00,3,,283
2013-1-2,28,20,9,12,4,-6,59,52,45,30.08,29.96,29.88,10,10,10,21,8,28,0.00,2,,290
2013-1-3,24,15,6,6,-4,-8,62,45,29,30.12,30.06,29.98,10,10,10,13,9,24,0.00,1,,290
2013-1-4,37,28,18,22,17,7,69,60,50,29.95,29.87,29.78,10,10,10,22,9,28,0.00,3,,245
2013-1-5,41,31,21,22,17,13,74,55,36,30.25,30.08,29.82,10,10,10,15,8,23,0.00,1,,277
2013-1-6,42,32,21,26,23,15,82,68,51,30.19,30.02,29.92,10,9,2,14,4,21,0.00,5,Snow,259
2013-1-7,37,30,24,27,24,19,85,72,55,30.38,30.22,29.96,10,9,6,16,5,17,0.00,1,,333
2013-1-8,46,37,28,26,25,24,85,64,43,30.35,30.30,30.24,10,10,9,20,8,26,0.00,1,,236
2013-1-9,45,34,24,32,26,19,88,68,46,30.38,30.20,29.97,10,9,7,17,3,28,0.00,2,,224
2013-1-10,46,40,32,25,22,21,66,47,37,30.52,30.30,30.00,10,10,10,28,15,38,0.00,0,,309
2013-1-11,41,33,25,37,29,19,93,76,62,30.50,30.35,30.22,10,8,2,10,4,,0.10,5,Rain,143
2013-1-12,46,42,39,41,39,37,96,88,79,30.21,30.15,30.11,10,6,0,8,5,,0.02,8,Fog,158
2013-1-13,53,48,42,48,44,41,100,91,82,30.14,30.07,29.97,10,4,0,10,4,,0.01,8,Fog,202
2013-1-14,62,52,41,50,42,24,89,70,37,30.22,30.00,29.85,10,10,10,15,10,21,0.00,4,,267
2013-1-15,42,36,30,25,23,21,72,57,49,30.30,30.25,30.20,10,10,10,9,5,,0.00,4,,338
2013-1-16,34,32,30,31,28,21,93,86,59,30.23,29.98,29.81,10,4,0,9,4,,0.41,8,Fog-Rain-Snow,347
2013-1-17,41,36,28,29,24,9,92,68,43,30.08,29.95,29.81,10,10,6,16,9,24,0.00,2,,276
2013-1-18,28,22,16,6,-2,-6,46,37,28,30.43,30.30,30.07,10,10,10,22,10,31,0.00,2,,303
2013-1-19,48,36,25,30,20,5,67,50,35,30.36,30.09,29.87,10,10,10,22,12,39,0.00,3,,213
2013-1-20,54,42,28,31,22,8,67,47,27,29.89,29.70,29.51,10,10,10,29,14,40,0.00,1,,248
2013-1-21,28,24,21,19,9,-1,86,53,33,30.08,29.96,29.78,10,8,2,16,9,30,0.01,5,Snow,284
2013-1-22,25,18,12,19,7,-3,88,60,34,30.06,29.86,29.74,10,10,9,17,8,25,0.00,3,,297
2013-1-23,15,10,6,0,-12,-17,59,37,24,30.12,30.08,30.04,10,10,10,17,9,29,0.00,1,,290
2013-1-24,18,10,1,-13,-14,-16,47,33,23,30.19,30.10,30.03,10,10,10,20,13,39,0.00,0,,302
2013-1-25,23,16,8,6,-10,-13,60,32,20,30.26,30.18,30.06,10,10,6,17,10,31,0.00,3,Snow,295
2013-1-26,24,17,10,9,0,-11,80,51,25,30.20,30.06,29.99,10,10,3,20,8,28,0.00,2,Snow,317
2013-1-27,30,21,12,0,-3,-7,56,36,20,30.44,30.34,30.21,10,10,10,20,12,28,0.00,0,,305
2013-1-28,30,24,17,25,15,-5,93,69,25,30.43,30.19,30.01,10,5,0,7,2,,0.15,7,Rain-Snow,305
2013-1-29,35,30,26,31,25,21,93,84,72,30.17,30.10,30.01,10,6,2,9,4,,0.05,8,Rain-Snow,350
2013-1-30,62,48,33,56,44,32,93,88,75,30.14,29.81,29.46,10,5,2,21,7,30,0.07,8,Rain,176
2013-1-31,62,47,30,57,36,13,89,65,34,29.56,29.24,28.95,10,8,1,37,20,50,0.33,5,Rain,244